Regional Weather Roundup
Issued by NWS

Home | Current Version | Previous Version | Graphics & Text | Print | Product List | Glossary On
Versions: 1 2 3 4 5 6 7 8 9 10 11 12 13 14 15 16 17 18 19 20 21 22 23 24 25 26 27 28 29 30 31 32 33 34 35 36 37 38 39 40 41 42 43 44 45 46 47 48 49 50
000
ASUS43 KOAX 211610
RWRNE

WEATHER ROUNDUP FOR NEBRASKA
NATIONAL WEATHER SERVICE OMAHA NE
1100 AM CDT THU SEP 21 2017

NOTES: SATELLITE DATA IS BEING USED TO AUGMENT CLOUD COVER ABOVE
       12000 FEET.
       "FAIR" INDICATES FEW OR NO CLOUDS BELOW 12,000 FEET WITH NO
       SIGNIFICANT WEATHER AND/OR OBSTRUCTIONS TO VISIBILITY.


NEZ001>004-019>022-054>056-211700-
NEBRASKA PANHANDLE

CITY           SKY/WX    TMP DP  RH WIND       PRES   REMARKS
SCOTTSBLUFF    SUNNY     62  43  49 E10       29.74S
ALLIANCE       SUNNY     63  45  51 S10       29.74F
CHADRON        SUNNY     71  41  33 S10       29.67F
GORDON         FAIR      69  47  45 SW10      29.73S
KIMBALL        SUNNY     69  41  35 S5        29.79S
SIDNEY         SUNNY     69  40  34 S6        29.78R
$$

NEZ057>060-069>072-079>082-211700-
SOUTHWEST NEBRASKA

CITY           SKY/WX    TMP DP  RH WIND       PRES   REMARKS
NORTH PLATTE   SUNNY     69  57  65 SE9       29.75F
IMPERIAL       SUNNY     71  42  35 S8        29.75F
LEXINGTON      SUNNY     76  58  54 SE10      29.78S
MCCOOK         SUNNY     74  50  42 S14       29.76F
OGALLALA       SUNNY     68  47  46 S6        29.75F
$$

NEZ005>010-023>029-035>040-094-211700-
NORTH CENTRAL NEBRASKA

CITY           SKY/WX    TMP DP  RH WIND       PRES   REMARKS
VALENTINE      SUNNY     74  57  55 S18       29.73F
AINSWORTH      SUNNY     70  59  68 SE10      29.76F
BROKEN BOW     SUNNY     74  59  59 SE15G21   29.77F
O`NEILL        SUNNY     71  61  71 SE12      29.79F
ORD            SUNNY     70  58  65 SE10      29.78F
THEDFORD       SUNNY     74  57  55 S24G30    29.74F
$$

NEZ041-046>049-061>064-073>077-083>087-211700-
SOUTH CENTRAL NEBRASKA

CITY           SKY/WX    TMP DP  RH WIND       PRES   REMARKS
GRAND ISLAND   SUNNY     74  67  78 S12       29.80F
AURORA         SUNNY     76  69  78 S10G16    29.80F
HASTINGS       SUNNY     76  64  66 S10       29.81F
HEBRON         SUNNY     83  70  66 S12G17    29.82S
HOLDREGE       SUNNY     76  54  45 S14       29.78F
KEARNEY        SUNNY     75  61  61 SE13      29.79F
YORK           MOSUNNY   81  70  69 S14       29.81F
$$

NEZ011>018-030>034-042>045-211700-
NORTHEAST NEBRASKA

CITY           SKY/WX    TMP DP  RH WIND       PRES   REMARKS
NORFOLK        CLOUDY    72  66  81 SE15      29.80F
ALBION         CLOUDY    68  64  87 S9        29.81F
BLAIR          MOSUNNY   80  71  74 SE12G18   29.85F
COLUMBUS       PTSUNNY   78  69  73 S12       29.81F
FREMONT        CLOUDY    78  69  73 SE10      29.84F
TEKAMAH        SUNNY     79  69  71 SE16      29.83F
WAYNE          CLOUDY    72  69  91 SE14      29.82F
$$

NEZ050>053-065>068-078-088>093-211700-
SOUTHEAST NEBRASKA

CITY           SKY/WX    TMP DP  RH WIND       PRES   REMARKS
LINCOLN        SUNNY     84  71  65 S14       29.82F
OMAHA EPPLEY   MOSUNNY   82  70  66 SE17      29.84F
BEATRICE       PTSUNNY   84  72  68 S15       29.84S
FALLS CITY     MOSUNNY   84  72  67 S17       29.86S
NEBRASKA CITY  CLOUDY    80  75  85 S12G21    29.86F
PLATTSMOUTH    PTSUNNY   81  73  76 SE12G20   29.86S
$$

NEZ044-045-051>053-067-211700-
OMAHA AREA

CITY           SKY/WX    TMP DP  RH WIND       PRES   REMARKS
OMAHA EPPLEY   MOSUNNY   82  70  66 SE17      29.84F
BLAIR          MOSUNNY   80  71  74 SE12G18   29.85F
FREMONT        CLOUDY    78  69  73 SE10      29.84F
MILLARD        PTSUNNY   82  73  74 SE12      29.84F
OFFUTT AFB     MOSUNNY   82  71  69 SE17      29.84F
PLATTSMOUTH    PTSUNNY   81  73  76 SE12G20   29.86S
WAHOO          CLOUDY    81  70  69 S13G18    29.83F
$$




USA.gov is the U.S. government's official web portal to all federal, state and local government web resources and services.